User: anonymous   Login
Location: *
(40.4270°N, 9.4940°E)
Time: 01:34:41
(UTC+02:00)
Language:

Okean 2 - Orbit

View from above orbital plane
View from above orbital plane
View from above satellite
View from above satellite

Ground track
Ground track

The orbit data is extracted from the following two-line orbital elements,

1 20510U 90018A   16120.27824656  .00000699  00000-0  56213-4 0  9991
2 20510  82.5182 208.7618 0010929 303.6397 108.8032 14.98504824419450
Epoch (UTC): 29 April 2016 06:40:40
Eccentricity: 0.0010929
inclination: 82.5182°
perigee height: 564 km
apogee height: 579 km
right ascension of ascending node: 208.7618°
argument of perigee: 303.6397°
revolutions per day: 14.98504824
mean anomaly at epoch: 108.8032°
orbit number at epoch: 41945

The dashed part of the orbit path shows where the satellite is in the earth's shadow,  

DLR